| time (UTC) | temp F | wind direction | speed knots | gust knots | rain 1hr in | rain 24hr in | rain mn in | humidity % | barometer mb |
| 20260904163013 | 60 | 141 | 3.5 | 6.1 | 0.00 | 0.00 | 0.00 | 71 | 994.4 |
| 20260904161513 | 60 | 179 | 4.3 | 7.0 | 0.00 | 0.00 | 0.00 | 71 | 994.4 |
| 20260904160014 | 61 | 176 | 3.5 | 5.2 | 0.00 | 0.00 | 0.00 | 67 | 994.5 |
| 20260904154509 | 61 | 142 | 1.7 | 4.3 | 0.00 | 0.00 | 0.00 | 63 | 994.6 |
| 20260904153016 | 62 | 144 | 1.7 | 6.1 | 0.00 | 0.00 | 0.00 | 58 | 994.7 |
| 20260904151508 | 62 | 167 | 5.2 | 8.7 | 0.00 | 0.00 | 0.00 | 59 | 994.7 |
| 20260904150006 | 63 | 136 | 3.5 | 7.0 | 0.00 | 0.00 | 0.00 | 60 | 994.8 |
| 20260904144506 | 63 | 129 | 1.7 | 6.1 | 0.00 | 0.00 | 0.00 | 57 | 994.9 |
| 20260904143004 | 63 | 113 | 2.6 | 7.0 | 0.00 | 0.00 | 0.00 | 57 | 995.1 |
| 20260904141504 | 63 | 168 | 4.3 | 7.0 | 0.00 | 0.00 | 0.00 | 58 | 995.2 |
| 20260904140100 | 63 | 151 | 3.5 | 7.0 | 0.00 | 0.00 | 0.00 | 57 | 995.4 |
| 20260904134605 | 62 | 173 | 0.0 | 7.8 | 0.00 | 0.00 | 0.00 | 57 | 995.5 |
| 20260904133057 | 63 | 164 | 1.7 | 6.1 | 0.00 | 0.00 | 0.00 | 58 | 995.6 |
| 20260904131556 | 63 | 163 | 0.9 | 5.2 | 0.00 | 0.00 | 0.00 | 56 | 995.7 |
| 20260904130055 | 63 | 108 | 1.7 | 4.3 | 0.00 | 0.00 | 0.00 | 58 | 995.7 |
| 20260904124554 | 63 | 160 | 3.5 | 5.2 | 0.00 | 0.00 | 0.00 | 59 | 995.9 |
| 20260904123055 | 62 | 178 | 3.5 | 7.8 | 0.00 | 0.00 | 0.00 | 61 | 996.1 |
| 20260904121550 | 62 | 155 | 4.3 | 7.8 | 0.00 | 0.00 | 0.00 | 60 | 996.2 |
| 20260904120051 | 62 | 155 | 4.3 | 7.8 | 0.00 | 0.00 | 0.00 | 60 | 996.4 |
| 20260904114546 | 62 | 144 | 4.3 | 7.0 | 0.00 | 0.00 | 0.00 | 65 | 996.4 |
| 20260904113046 | 62 | 147 | 7.0 | 8.7 | 0.00 | 0.00 | 0.00 | 60 | 996.6 |
| 20260904111546 | 63 | 167 | 4.3 | 7.0 | 0.00 | 0.00 | 0.00 | 59 | 996.8 |
| 20260904110043 | 63 | 169 | 5.2 | 7.8 | 0.00 | 0.00 | 0.00 | 56 | 996.8 |
| 20260904104550 | 63 | 148 | 2.6 | 7.0 | 0.00 | 0.00 | 0.00 | 55 | 997.0 |
| 20260904103039 | 63 | 140 | 4.3 | 7.0 | 0.00 | 0.00 | 0.00 | 55 | 997.2 |
| 20260904101538 | 63 | 151 | 2.6 | 7.0 | 0.00 | 0.00 | 0.00 | 59 | 997.2 |
| 20260904100039 | 64 | 119 | 3.5 | 6.1 | 0.00 | 0.00 | 0.00 | 56 | 997.2 |
| 20260904094535 | 64 | 190 | 0.9 | 3.5 | 0.00 | 0.00 | 0.00 | 53 | 997.4 |
| 20260904093031 | 62 | 159 | 0.0 | 2.6 | 0.00 | 0.00 | 0.00 | 59 | 997.4 |
| 20260904091531 | 61 | 152 | 2.6 | 5.2 | 0.00 | 0.00 | 0.00 | 59 | 997.5 |
| 20260904090028 | 61 | 136 | 1.7 | 5.2 | 0.00 | 0.00 | 0.00 | 60 | 997.6 |
| 20260904084534 | 62 | 67 | 0.0 | 1.7 | 0.00 | 0.00 | 0.00 | 62 | 997.6 |
| 20260904083029 | 63 | 140 | 0.0 | 0.9 | 0.00 | 0.00 | 0.00 | 61 | 997.7 |
| 20260904081522 | 62 | 163 | 0.0 | 1.7 | 0.00 | 0.00 | 0.00 | 66 | 997.8 |
| 20260904080020 | 60 | 163 | 0.0 | 0.0 | 0.00 | 0.00 | 0.00 | 68 | 997.8 |
| 20260904074514 | 57 | 254 | 0.0 | 0.9 | 0.00 | 0.00 | 0.00 | 77 | 998.0 |
| 20260904073011 | 56 | 325 | 0.0 | 0.9 | 0.00 | 0.00 | 0.00 | 81 | 998.0 |
| 20260904071504 | 54 | 336 | 1.7 | 3.5 | 0.00 | 0.00 | 0.00 | 84 | 998.0 |
| 20260904070000 | 53 | 330 | 1.7 | 3.5 | 0.00 | 0.00 | 0.00 | 89 | 998.2 |
| 20260904064556 | 52 | 157 | 0.0 | 0.0 | 0.00 | 0.00 | 0.00 | 92 | 998.2 |
| 20260904063052 | 50 | 157 | 0.0 | 1.7 | 0.00 | 0.00 | 0.00 | 93 | 998.3 |
| 20260904061548 | 49 | 157 | 0.0 | 0.0 | 0.00 | 0.00 | 0.00 | 93 | 998.4 |
| 20260904060050 | 47 | 157 | 0.0 | 0.0 | 0.00 | 0.00 | 0.00 | 93 | 998.3 |
| 20260904054542 | 45 | 157 | 0.0 | 0.0 | 0.00 | 0.00 | 0.00 | 93 | 998.2 |
| 20260904053042 | 43 | 157 | 0.0 | 0.0 | 0.00 | 0.00 | 0.00 | 93 | 998.3 |
| 20260904051538 | 41 | 157 | 0.0 | 0.0 | 0.00 | 0.00 | 0.00 | 93 | 998.4 |
| 20260904050040 | 40 | 157 | 0.0 | 0.0 | 0.00 | 0.00 | 0.00 | 93 | 998.5 |
| 20260904044535 | 40 | 157 | 0.0 | 0.0 | 0.00 | 0.00 | 0.00 | 93 | 998.6 |
| 20260904043033 | 39 | 157 | 0.0 | 0.0 | 0.00 | 0.00 | 0.00 | 93 | 998.6 |
| 20260904041532 | 39 | 157 | 0.0 | 0.0 | 0.00 | 0.00 | 0.00 | 93 | 998.8 |
| 20260904040037 | 39 | 157 | 0.0 | 0.0 | 0.00 | 0.00 | 0.00 | 93 | 998.7 |
| 20260904034534 | 40 | 157 | 0.0 | 0.0 | 0.00 | 0.00 | 0.00 | 93 | 998.7 |
| 20260904033029 | 40 | 157 | 0.0 | 1.7 | 0.00 | 0.00 | 0.00 | 93 | 998.8 |
| 20260904031526 | 40 | 157 | 0.0 | 0.0 | 0.00 | 0.00 | 0.00 | 93 | 998.7 |
| 20260904030025 | 39 | 157 | 0.0 | 0.0 | 0.00 | 0.00 | 0.00 | 93 | 998.8 |
| 20260904024524 | 40 | 157 | 0.0 | 0.0 | 0.00 | 0.00 | 0.00 | 93 | 998.9 |
| 20260904023021 | 40 | 157 | 0.0 | 0.0 | 0.00 | 0.00 | 0.00 | 93 | 999.0 |
| 20260904021520 | 39 | 157 | 0.0 | 0.0 | 0.00 | 0.00 | 0.00 | 93 | 999.0 |
| 20260904020018 | 40 | 157 | 0.0 | 0.0 | 0.00 | 0.00 | 0.00 | 93 | 999.2 |
| 20260904014514 | 41 | 157 | 0.0 | 0.0 | 0.00 | 0.00 | 0.00 | 93 | 999.3 |
| 20260904013011 | 41 | 157 | 0.0 | 0.0 | 0.00 | 0.00 | 0.00 | 93 | 999.5 |
| 20260904011521 | 41 | 157 | 0.0 | 0.0 | 0.00 | 0.00 | 0.00 | 93 | 999.7 |
| 20260904010010 | 41 | 157 | 0.0 | 0.0 | 0.00 | 0.00 | 0.00 | 93 | 999.8 |
| 20260904004503 | 41 | 157 | 0.0 | 0.0 | 0.00 | 0.00 | 0.00 | 93 | 1000.0 |
| 20260904003002 | 41 | 157 | 0.0 | 0.0 | 0.00 | 0.00 | 0.00 | 92 | 1000.0 |
| 20260904001606 | 42 | 157 | 0.0 | 0.0 | 0.00 | 0.00 | 0.00 | 92 | 1000.1 |
| 20260904000059 | 42 | 157 | 0.0 | 0.0 | 0.00 | 0.00 | 0.00 | 92 | 1000.2 |
| 20260903234557 | 43 | 157 | 0.0 | 0.0 | 0.00 | 0.00 | 0.00 | 92 | 1000.2 |
| 20260903233054 | 43 | 157 | 0.0 | 0.0 | 0.00 | 0.00 | 0.00 | 92 | 1000.3 |
| 20260903231551 | 44 | 157 | 0.0 | 0.0 | 0.00 | 0.00 | 0.00 | 92 | 1000.3 |
| 20260903230048 | 44 | 157 | 0.0 | 0.0 | 0.00 | 0.00 | 0.00 | 91 | 1000.5 |
| 20260903224545 | 45 | 157 | 0.0 | 0.0 | 0.00 | 0.00 | 0.00 | 91 | 1000.7 |
| 20260903223050 | 45 | 157 | 0.0 | 0.9 | 0.00 | 0.00 | 0.00 | 91 | 1000.9 |
| 20260903221539 | 45 | 157 | 0.0 | 0.0 | 0.00 | 0.00 | 0.00 | 91 | 1001.0 |
| 20260903220054 | 45 | 157 | 0.0 | 0.0 | 0.00 | 0.00 | 0.00 | 90 | 1001.1 |
| 20260903214535 | 46 | 157 | 0.0 | 0.0 | 0.00 | 0.00 | 0.00 | 90 | 1001.2 |
| 20260903213036 | 46 | 157 | 0.0 | 0.9 | 0.00 | 0.00 | 0.00 | 89 | 1001.2 |
| 20260903211531 | 46 | 157 | 0.0 | 0.0 | 0.00 | 0.00 | 0.00 | 88 | 1001.3 |
| 20260903210030 | 47 | 157 | 0.0 | 0.0 | 0.00 | 0.00 | 0.00 | 88 | 1001.4 |
| 20260903204527 | 47 | 157 | 0.0 | 0.0 | 0.00 | 0.00 | 0.00 | 88 | 1001.4 |
| 20260903203025 | 48 | 157 | 0.0 | 2.6 | 0.00 | 0.00 | 0.00 | 87 | 1001.6 |
| 20260903201524 | 48 | 184 | 0.0 | 0.0 | 0.00 | 0.00 | 0.00 | 85 | 1001.7 |
| 20260903200020 | 49 | 184 | 0.0 | 2.6 | 0.00 | 0.00 | 0.00 | 84 | 1001.8 |
| 20260903194517 | 50 | 197 | 0.0 | 0.0 | 0.00 | 0.00 | 0.00 | 84 | 1001.9 |
| 20260903193015 | 50 | 197 | 0.0 | 0.0 | 0.00 | 0.00 | 0.00 | 83 | 1001.9 |
| 20260903191512 | 51 | 197 | 0.0 | 0.0 | 0.00 | 0.00 | 0.00 | 80 | 1002.0 |
| 20260903190009 | 52 | 197 | 0.0 | 0.0 | 0.00 | 0.00 | 0.00 | 77 | 1002.2 |
| 20260903184507 | 53 | 197 | 0.0 | 0.0 | 0.00 | 0.00 | 0.00 | 75 | 1002.2 |
| 20260903183006 | 55 | 197 | 0.0 | 0.0 | 0.00 | 0.00 | 0.00 | 72 | 1002.2 |
| 20260903181509 | 56 | 197 | 0.0 | 0.0 | 0.00 | 0.00 | 0.00 | 68 | 1002.3 |
| 20260903180007 | 59 | 197 | 0.0 | 1.7 | 0.00 | 0.00 | 0.00 | 62 | 1002.3 |
| 20260903174504 | 60 | 197 | 1.7 | 3.5 | 0.00 | 0.00 | 0.00 | 59 | 1002.2 |
| 20260903173017 | 62 | 200 | 1.7 | 3.5 | 0.00 | 0.00 | 0.00 | 57 | 1002.2 |
| 20260903171504 | 62 | 236 | 1.7 | 7.0 | 0.00 | 0.00 | 0.00 | 55 | 1002.3 |
| 20260903170004 | 63 | 200 | 3.5 | 7.0 | 0.00 | 0.00 | 0.00 | 55 | 1002.3 |
| 20260903164503 | 63 | 233 | 5.2 | 9.6 | 0.00 | 0.00 | 0.00 | 53 | 1002.2 |